Retour au catalogue

STARLINK-36804

ActifCommunicationsSSO
NORAD 67799·PAYLOAD·🇺🇸 United States

Lancé Feb 15, 2026 depuis Vandenberg Space Force Base

Loading…

Prochains Passages (prochaines 24 heures)

TLE

FraisSource: CelesTrak SupGP

Époque: Sep 15, 2026, 03:15 UTC

1 67799C 26032C   26258.13590278 -.00057891  00000+0 -17968-2 0  2581
2 67799  97.2855  84.5429 0001748  92.5967  75.6746 15.33472174    19

Suivez STARLINK-36804 en temps réel avec AllMySat

Download on the App Store